Starlink 36304

operational
NORAD ID: 68551 Int'l Des: 2026-070 Owner: SPXS Country: US Constellation: starlink
LEOCIRCULAR

Starlink 36304について

説明を読み込み中...

リアルタイム位置

3D地球を読み込み中...

次回通過

高度履歴

Altitude vs Time

uPlot chart will show altitude changes over time

軌道要素

1 68551C 26070J 26093.79770833 .00570060 00000+0 70228-3 0 938
2 68551 53.1620 260.1300 0008657 285.4176 56.2019 16.06798622 16
Epoch: Apr 3, 2026 • Age: 31 hours

現在のステータス

高度 259.4 km
速度 7.75 km/s
衛星直下点 -22.28°S, 164.86°E
打ち上げ日 Apr 2, 2026
運用期間 1 days
タイプ internet

技術仕様

分類 Payload
質量 575.00 kg
乾燥質量 530.00 kg
総質量 575.00 kg
長さ 0.30 m
直径 4.10 m
スパン 29.00 m
形状 Box + pan
製造者 SPXS
バスタイプ Starlink V2MO
フェーズステータス In Orbit
所有者/国 SPXS/US

大規模コンステレーション

Loading constellations...